This demonstration page uses our WeatherBlox Daily Observations layout. Learn more.

Left ArrowRight Arrow

Hourly Observations for October 9, 2018

Temp ( °F °C ) Dew Point ( °F °C ) Humidity (%) Winds ( mph kmh ) Pressure ( in mb ) Visibility ( mi km ) Precip ( " mm )
12:54 am 00:54 Cloudy 53 11.7 50 10 89 89 Calm 29.96 1015 10 16.0934 0 0
1:47 am 01:47 Cloudy with Light Rain 52 11.1 51 10.6 97 97 N 7 11 29.97 1015 10 16.0934 0.01 0.254
1:54 am 01:54 Cloudy with Light Rain 52 11.1 50 10 93 93 N 7 11 29.95 1014 10 16.0934 0.01 0.254
2:07 am 02:07 Cloudy 52 11.1 51 10.6 97 97 N 7 11 29.94 1014 10 16.0934 0 0.0254
2:54 am 02:54 Cloudy 52 11.1 51 10.6 97 97 N 5 7 29.93 1014 10 16.0934 0 0.0254
3:24 am 03:24 Cloudy with Light Rain 52 11.1 51 10.6 97 97 NW 6 9 29.94 1014 10 16.0934 0 0.0254
3:54 am 03:54 Cloudy 52 11.1 51 10.6 97 97 NNW 7 11 29.92 1013 10 16.0934 0 0.0254
4:54 am 04:54 Cloudy with Light Rain 52 11.1 51 10.6 97 97 N 7 11 29.92 1013 10 16.0934 0 0.0254
5:54 am 05:54 Cloudy with Light Rain 53 11.7 51 10.6 93 93 N 8 13 29.91 1013 10 16.0934 0 0.0254
6:41 am 06:41 Cloudy with Light Rain 52 11.1 51 10.6 97 97 N 8 13 29.94 1014 2.5 4.02335 0.02 0.508
6:54 am 06:54 Cloudy with Light Rain 52 11.1 51 10.6 97 97 N 9 15 29.93 1014 2.5 4.02335 0.02 0.508
7:05 am 07:05 Cloudy with Light Rain 52 11.1 51 10.6 97 97 N 10 17 29.94 1014 3 4.82802 0.01 0.254
7:21 am 07:21 Cloudy with Light Rain 52 11.1 51 10.6 97 97 N 12 19 29.94 1014 3 4.82802 0.02 0.508
7:36 am 07:36 Cloudy with Rain 52 11.1 51 10.6 97 97 N 9 15 29.94 1014 3 4.82802 0.03 0.762
7:44 am 07:44 Cloudy with Rain 52 11.1 51 10.6 97 97 N 9 15 29.94 1014 2 3.21868 0.06 1.524
7:54 am 07:54 Cloudy with Light Rain 51 10.6 50 10 96 96 N 12 19 29.93 1014 3 4.82802 0.07 1.778
8:36 am 08:36 Cloudy with Rain 50 10 49 9.4 96 96 N 12 19 29.94 1014 2.5 4.02335 0.06 1.524
8:52 am 08:52 Cloudy with Light Rain 50 10 48 9 94 94 N 12 19 29.91 1013 3 4.82802 0.07 1.778
8:54 am 08:54 Cloudy with Rain 50 10 49 9.4 96 96 N 12 19 29.93 1013 2.5 4.02335 0.07 1.778
9:06 am 09:06 Cloudy with Light Rain 50 10 49 9.4 96 96 N 12 19 29.91 1013 2.5 4.02335 0.02 0.508
9:15 am 09:15 Cloudy with Light Rain 50 10 49 9.4 96 96 N 15 24 29.91 1013 4 6.43736 0.02 0.508
9:54 am 09:54 Cloudy with Heavy Rain 50 10 48 8.9 93 93 NNE 14 22 29.9 1013 1 1.60934 0.04 1.016
10:15 am 10:15 Cloudy with Light Rain 50 10 48 8.9 93 93 N 14 22 29.88 1012 3 4.82802 0.07 1.778
10:41 am 10:41 Cloudy with Light Rain 50 10 49 9.4 96 96 N 13 20 29.88 1012 4 6.43736 0.08 2.032
10:51 am 10:51 Cloudy with Light Rain 50 10 48 9 94 94 N 12 19 29.88 1012 2.5 4.02335 0.09 2.286
10:54 am 10:54 Cloudy with Light Rain 50 10 49 9.4 96 96 N 12 19 29.88 1012 2.5 4.02335 0.09 2.286
11:54 am 11:54 Cloudy with Rain 51 10.6 49 9.4 92 92 NNE 14 22 29.87 1011 2.5 4.02335 0.06 1.524
12:02 pm 12:02 Cloudy with Light Rain 51 10.6 49 9.4 92 92 N 12 19 29.85 1011 3 4.82802 0.01 0.254
12:09 pm 12:09 Cloudy with Light Rain 51 10.6 49 9.4 92 92 NNE 13 20 29.83 1010 2.5 4.02335 0.01 0.254
12:26 pm 12:26 Cloudy with Light Rain 51 10.6 49 9.4 92 92 NNE 14 22 29.83 1010 4 6.43736 0.03 0.762
12:54 pm 12:54 Cloudy with Light Rain 52 11.1 50 10 93 93 NNE 16 26 29.81 1010 6 9.65604 0.05 1.27
1:38 pm 13:38 Cloudy with Heavy Rain 52 11.1 50 10 93 93 N 12 19 29.8 1009 1.75 2.816345 0.03 0.762
1:54 pm 13:54 Cloudy with Rain 51 10.6 50 10 96 96 N 14 22 29.8 1009 2 3.21868 0.11 2.794
1:58 pm 13:58 Cloudy with Rain 51 10.6 50 10 96 96 N 10 17 29.8 1009 3 4.82802 0.01 0.254
2:38 pm 14:38 Cloudy with Rain 52 11.1 50 10 93 93 N 17 28 29.74 1007 3 4.82802 0.09 2.286
2:54 pm 14:54 Cloudy with Light Rain 52 11.1 50 10 93 93 N 16 26 29.73 1007 4 6.43736 0.1 2.54
3:18 pm 15:18 Cloudy with Light Rain 52 11.1 50 10 93 93 N 18 30 29.71 1006 4 6.43736 0.01 0.254
3:43 pm 15:43 Cloudy with Light Rain 51 10.6 49 9.4 92 92 NNE 17 28 29.71 1006 2.5 4.02335 0.01 0.254
3:50 pm 15:50 Cloudy with Light Rain 52 11 50 10 94 94 NNE 21 33 29.68 1005 2.5 4.02335 0.01 0.254
3:54 pm 15:54 Cloudy with Light Rain 52 11.1 50 10 93 93 NNE 20 31 29.66 1005 2.5 4.02335 0.01 0.254
4:00 pm 16:00 Cloudy with Light Rain 52 11.1 50 10 93 93 NNE 22 35 29.68 1005 3 4.82802 0.01 0.254
4:16 pm 16:16 Cloudy with Heavy Rain 51 10.6 49 9.4 92 92 N 18 30 29.65 1004 1.75 2.816345 0.03 0.762
4:27 pm 16:27 Cloudy with Rain 51 10.6 49 9.4 92 92 N 15 24 29.65 1004 3 4.82802 0.08 2.032
4:54 pm 16:54 Cloudy with Light Rain 51 10.6 49 9.4 92 92 NNE 15 24 29.66 1004 7 11.26538 0.09 2.286
5:31 pm 17:31 Cloudy with Light Rain 51 10.6 49 9.4 92 92 N 15 24 29.65 1004 2.5 4.02335 0.04 1.016
5:39 pm 17:39 Cloudy with Light Rain 51 10.6 49 9.4 92 92 NNE 7 11 29.65 1004 8 12.87472 0.04 1.016
5:54 pm 17:54 Cloudy with Light Rain 51 10.6 49 9.4 92 92 NNE 10 17 29.64 1004 10 16.0934 0.04 1.016
6:54 pm 18:54 Cloudy with Light Rain 50 10 49 9.4 96 96 NNE 15 24 29.63 1003 8 12.87472 0 0.0254
7:54 pm 19:54 Cloudy with Light Rain 50 10 48 8.9 93 93 NW 8 13 29.64 1004 10 16.0934 0.01 0.254
8:54 pm 20:54 Cloudy with Light Rain 49 9.4 48 8.9 97 97 NW 9 15 29.65 1004 4 6.43736 0.03 0.762
9:20 pm 21:20 Cloudy with Light Rain 48 8.9 47 8.3 96 96 NW 10 17 29.65 1004 2.5 4.02335 0.01 0.254
9:40 pm 21:40 Cloudy with Light Rain 48 8.9 47 8.3 96 96 NW 10 17 29.65 1004 3 4.82802 0.01 0.254
9:54 pm 21:54 Cloudy with Light Rain 48 8.9 46 7.8 93 93 NW 13 20 29.67 1005 3 4.82802 0.02 0.508
10:03 pm 22:03 Cloudy with Light Rain 48 8.9 46 7.8 93 93 WNW 14 22 29.68 1005 2.5 4.02335 0 0.0254
10:12 pm 22:12 Cloudy with Light Rain 47 8.3 46 7.8 97 97 NW 10 17 29.68 1005 3 4.82802 0 0.0254
10:39 pm 22:39 Cloudy with Mist and Fog 47 8.3 45 7.2 93 93 NW 14 22 29.68 1005 4 6.43736 0 0.0254
10:54 pm 22:54 Cloudy with Mist and Fog 47 8.3 45 7.2 93 93 NW 13 20 29.67 1005 6 9.65604 0 0.0254
11:54 pm 23:54 Cloudy 47 8.3 44 6.7 90 90 NW 13 20 29.69 1005 10 16.0934 0 0

Powered by AerisWeather